Regional Weather Roundup
Issued by NWS San Diego, CA

Home | Current Version | Previous Version | Text Only | Print | Product List | Glossary On
Versions: 1 2 3 4 5 6 7 8 9 10 11 12 13 14 15 16 17 18 19 20 21 22 23 24 25 26 27 28 29 30 31 32 33 34 35 36 37 38 39 40 41 42 43 44 45 46 47 48 49 50
000
ASUS46 KSGX 031511
RWRSGX

SAN DIEGO HOURLY WEATHER ROUNDUP
NATIONAL WEATHER SERVICE SAN DIEGO CA
800 AM PDT SUN MAY 03 2015

NOTE: "FAIR" INDICATES FEW OR NO CLOUDS BELOW 12,000 FEET WITH NO
SIGNIFICANT WEATHER AND/OR OBSTRUCTIONS TO VISIBILITY.

CAZ042-043-060-061-PZZ750-775-031600-

GREATER SAN DIEGO AREA

CITY           SKY/WX    TMP DP  RH WIND       PRES   REMARKS
LINDBERGH FLD  PTSUNNY   64  52  64 CALM      29.93R
POINT LOMA       N/A     64  52  64 E1          N/A
NATIONAL CITY    N/A     64  56  75 SW1       29.92R
CHULA VISTA      N/A     63  56  78 SW1       29.84R
IMPERIAL BEACH CLOUDY    64  56  75 SW7       29.93R
BROWN FIELD    PTSUNNY   62  55  77 VRB3      29.92R
MIRAMAR MCAS   CLOUDY    65  53  65 VRB3      29.91R
MONTGOMERY FLD PTSUNNY   63  53  70 W3        29.92R

$$

NORTH SAN DIEGO COUNTY

CITY           SKY/WX    TMP DP  RH WIND       PRES   REMARKS
CAMP PENDLETON CLOUDY    63  54  72 SW5       29.91R HAZE
OCEANSIDE AP   CLOUDY    63  54  72 VRB5      29.90R
OCEANSIDE HBR    N/A     62  56  81 SW3       29.94R
VISTA            N/A     60  54  81 CALM      29.89R
CARLSBAD       CLOUDY    62  54  74 VRB3      29.91R
DEL MAR          N/A     62  57  83 CALM      29.93R
LA JOLLA SCRIP   N/A    N/A N/A N/A CALM      29.89R
FALLBROOK        N/A     61  59  94 CALM      29.90R
ESCONDIDO        N/A     62  56  81 CALM      29.91R
SAN MARCOS       N/A     60  55  84 W3        29.89R
POWAY            N/A     62  55  78 CALM      29.92R

$$

EAST SAN DIEGO COUNTY

CITY           SKY/WX    TMP DP  RH WIND       PRES   REMARKS
RAMONA         CLOUDY    59  51  75 NE3       29.92R
SANTEE LAKES     N/A     63  55  76 CALM      29.91R
LA MESA          N/A     61  55  80 CALM      29.85R
JAMUL            N/A     58  55  89 CALM      29.90R
DESCANSO N       N/A     59  47  64 CALM      29.75S
MT. LAGUNA OBS   N/A     55  26  33 N2        29.60
CAMPO            N/A     56  48  74 CALM      29.89S

$$

ORANGE COUNTY AND THE LOS ANGELES BASIN

CITY           SKY/WX    TMP DP  RH WIND       PRES   REMARKS
JOHN WAYNE AP  CLOUDY    62  52  69 VRB5      29.91R
LAKE FOREST FR   N/A     58  50  74 CALM      29.81R
SANTA ANA        N/A     64  55  73 CALM      29.86R
HUNTINGTON BCH   N/A     62  56  81 CALM      29.93R
FULLERTON      CLOUDY    63  32  31 CALM      29.90R
LONG BEACH     CLOUDY    63  53  70 S3        29.91R
L.A. AP        PTSUNNY   61  53  75 E5        29.92R
L.A. DOWNTOWN  CLOUDY    62  53  72 CALM      29.91R

$$

THE INLAND EMPIRE

CITY           SKY/WX    TMP DP  RH WIND       PRES   REMARKS
CORONA         CLOUDY    58  54  86 CALM      29.92R
CHINO          CLOUDY    60  53  77 CALM      29.93R
ONTARIO        CLOUDY    58  53  84 VRB3      29.91R
SAN BERNARDINO CLOUDY    55  50  82 CALM      29.92R FOG
RIVERSIDE AP   CLOUDY    59  52  77 SW3       29.92R
RIV CYN CREST    N/A     59  59 100 W1          N/A
MORENO VALLEY    N/A     58  57  95 CALM      29.89R
HORSETHIEF CYN   N/A     58  50  76 E5        29.86R
PERRIS           N/A     56  54  93 S2          N/A
MENIFEE          N/A     58  55  89 SW2       29.97R
HEMET EAST       N/A     53  49  88 CALM      29.87R
FRENCH VALLEY  NOT AVBL
TEMECULA         N/A     59  55  84 CALM      29.88R

$$

SAN BERNARDINO AND RIVERSIDE COUNTY MOUNTAINS

CITY           SKY/WX    TMP DP  RH WIND       PRES   REMARKS
BIG BEAR AP    SUNNY     46  30  53 W5        30.06S
ANGELUS OAKS     N/A     50  31  47 CALM      29.75R
PINE COVE        N/A     53  29  39 NW3       29.82R

$$

SOUTHERN DESERT INCLUDING THE COACHELLA VALLEY

CITY           SKY/WX    TMP DP  RH WIND       PRES   REMARKS
PALM SPRINGS   MOSUNNY   75  39  27 S5        29.81R
THOUSAND PALMS   N/A     76  40  27 W10       29.77R
THERMAL        SUNNY     76  41  28 CALM      29.77R
BLYTHE         SUNNY     77  47  34 CALM      29.81R
IMPERIAL AP    SUNNY     72  56  57 SW3       29.76R
EL CENTRO NAS  SUNNY     74  46  36 W3        29.79R
YUMA AZ        SUNNY     77  57  50 SE17      29.80R
MEXICALI       MOSUNNY   72  61  68 SE6       29.78

$$

UPPER DESERT

CITY           SKY/WX    TMP DP  RH WIND       PRES   REMARKS
VICTORVILLE AP SUNNY     63  32  31 S6        29.91S
HESPERIA         N/A     62  36  38 W2        29.93R
APPLE VALLEY     N/A     64  34  33 CALM      29.97F
PALMDALE       SUNNY     68  31  25 S6        29.90R
LANCASTER      SUNNY     64  33  31 CALM      29.89R
DAGGETT        SUNNY     69  30  23 W10       29.86R
29 PALMS N     SUNNY     72  30  21 W3        29.93R
NEEDLES        SUNNY     82  37  20 CALM      29.82R

$$

REGIONAL REPORTS

CITY           SKY/WX    TMP DP  RH WIND       PRES   REMARKS
SANTA BARBARA  CLOUDY    56  49  77 S3        29.93R
SANDBERG       SUNNY     59  29  31 SW5       29.97R
MT. WILSON       N/A     59  28  31 W3          N/A
LAS VEGAS NV   MOSUNNY   76  28  17 S9        29.81R
PHOENIX AZ     MOSUNNY   79  44  28 E6        29.87R
TIJUANA        PTSUNNY   61  52  72 NW3       29.94R
ENSENADA NW      N/A     62  32  32 NW1       29.91R

$$

OFFSHORE ISLANDS

CITY           SKY/WX    TMP DP  RH WIND       PRES   REMARKS
CATALINA ARPT  CLOUDY    54  51  90 N8        29.93R
SAN NICOLAS IS CLOUDY   N/A N/A N/A NW13      29.93R

$$

MARINE AND OFFSHORE BUOY REPORTS

STATION/POSITION SKY/WX   TEMP    WIND        PRES    SWELL
                          AIR SEA DIR/SP/G            HT/PER/DIR
                          (F)     (DEG/KT/KT) (MB)    (FT/S/D)
TANNER BANKS               59 60  310/ 10/ 14 1013.6R   7/170/21
S CLEMENTE BASIN           61 65  330/  8/ 10 1013.0R   5/220/24
SAN NICOLAS IS.               59                N/A     5/180/22
SO. S. ROSA ISLA           57 61  290/  8/ 12 1013.0R   5/10
W. S. BARBARA CH           55 56  320/  8/ 10 1013.0R   5/310/10
S. MONICA BASIN            57 62  340/ 10/ 12 1013.3R   3/170/17
S PEDRO CHANNEL               60                N/A     2/170/22
DANA POINT                    60                N/A     3/190/17
OCEANSIDE OFFSHR              62                N/A     3/200/22
TORREY PINES OTR              66                N/A     3/200/22
LA JOLLA 1                 63 65  290/  1/  2 1012.6R
MISSION BAY BUOY              65                N/A     3/200/17
SAN DIEGO BAY                 68              1013.0R
POINT LOMA SOUTH              66                N/A     3/180/17

$$



USA.gov is the U.S. government's official web portal to all federal, state and local government web resources and services.